SCP
0 0 0 0 0 0 0 0 0 0 0 0 0 0 0 0 0 0 0 0 0 0 0 0 0 0 0 0 0 0 0 0 0 0 0 0 0 0 0 0 0 0 0
0 0 0 0 0 0 0 0 0 0 0 0 0 0 0 0 0 0 0 0 0 0 0 0 0 0 0 0 0 0 0 0 0 0 0 0 0 0 0 0 0 0 0
0 0 0 0 0 0 0 0 0 0 0 0 0 0 0 0 0 0 0 0 0 0 0 0 0 0 0 0 0 0 0 0 0 0 0 0 0 0 0 0 0 0 0
0 0 0 0 0 0 0 0 0 0 0 0 0 0 0 0 0 0 0 0 0 0 0 0 0 0 0 0 0 0 0 0 0 0 0 0 0 0 0 0 0 0 0
0 0 0 0 0 0 0 0 0 0 0 0 0 0 0 0 0 0 0 0 0 0 0 0 0 0 0 0 0 0 0 0 0 0 0 0 0 0 0 0 0 0 0
0 0 0 0 0 0 0 0 0 0 0 0 0 0 0 0 0 0 0 0 0 0 0 0 0 0 0 0 0 0 0 0 0 0 0 0 0 0 0 0 0 0 0
0 0 0 0 0 0 0 0 0 0 0 0 0 0 0 0 0 0 0 0 0 0 0 0 0 0 0 0 0 0 0 0 0 0 0 0 0 0 0 0 0 0 0
0 0 0 0 0 0 0 0 0 0 0 0 0 0 0 0 0 0 0 0 0 0 0 0 0 0 0 0 0 0 0 0 0 0 0 0 0 0 0 0 0 0 0
0 0 0 0 0 0 0 0 0 0 0 0 0 0 0 0 0 0 0 0 0 0 0 0 0 0 0 0 0 0 0 0 0 0 0 0 0 0 0 0 0 0 0
0 0 0 0 0 0 0 0 0 0 0 0 0 0 0 0 0 0 0 0 0 0 0 0 0 0 0 0 0 0 0 0 0 0 0 0 0 0 0 0 0 0 0
0 0 0 0 0 0 0 0 0 0 0 0 0 0 0 0 0 0 0 0 0 0 0 0 0 0 0 0 0 0 0 0 0 0 0 0 0 0 0 0 0 0 0
0 0 0 0 0 0 0 0 0 0 0 0 0 0 0 0 0 0 0 0 0 0 0 0 0 0 0 0 0 0 0 0 0 0 0 0 0 0 0 0 0 0 1
0 0 0 0 0 0 0 0 0 0 0 0 0 0 0 0 0 0 0 0 0 0 0 0 0 0 0 0 0 0 0 0 0 0 0 0 0 0 0 0 0 0 0
1 0 0 0 0 0 0 0 0 0 0 0 0 0 0 0 0 0 0 0 0 0 0 0 0 0 0 0 0 0 0 0 0 0 0 0 0 0 0 0 0 0 0
1 1 1 0 0 0 0 0 0 0 0 0 0 0 0 0 0 0 0 0 0 0 0 0 0 0 0 0 0 0 0 0 0 0 0 0 0 0 0 0 0 0 0
1 1 1 1 0 0 0 0 0 0 0 0 0 0 0 0 0 0 0 0 0 0 0 0 0 0 0 0 0 0 0 0 0 0 0 0 0 0 0 0 0 0 0
1 1 1 1 1 0 0 0 0 0 0 0 0 0 0 0 0 0 0 0 0 0 0 0 0 0 0 0 0 0 0 0 0 0 0 0 0 0 0 0 0 0 0
1 1 1 1 1 1 0 0 0 0 0 0 0 0 0 0 0 0 0 0 0 0 0 0 0 0 0 0 0 0 0 0 0 0 0 0 0 0 0 0 0 0 0
1 1 1 1 1 1 1 0 0 0 0 0 0 0 0 0 0 0 0 0 0 0 0 0 0 0 0 0 0 0 0 0 0 0 0 0 0 0 0 0 0 0 0
0 1 1 1 1 1 1 0 0 0 0 0 0 0 0 0 0 0 0 0 0 0 0 0 0 0 0 0 0 0 0 0 0 0 0 0 0 0 0 0 0 0 0
0 0 0 1 1 1 1 0 0 0 0 0 0 0 0 0 0 0 0 0 0 0 0 0 0 0 0 0 0 0 0 0 0 0 0 0 0 0 0 0 0 0 0
0 0 0 0 0 0 0 0 0 0 0 0 0 0 0 0 0 0 0 0 0 0 0 0 0 0 0 0 0 0 0 0 0 0 0 0 0 0 0 0 0 0 0
0 0 0 0 0 0 0 0 0 0 0 0 0 0 0 0 0 0 0 0 0 0 0 0 0 0 0 0 0 0 0 0 0 0 0 0 0 0 0 0 0 0 0
0 0 0 0 0 0 0 0 0 0 0 0 0 0 0 0 0 0 0 0 0 0 0 0 0 0 0 0 0 0 0 0 0 0 0 0 0 0 0 0 0 0 0
0 0 0 0 0 0 0 0 0 0 0 0 0 0 0 0 0 0 0 0 0 0 0 0 0 0 0 0 0 0 0 0 0 0 0 0 0 0 0 0 0 0 0
0 0 0 0 0 0 0 0 0 0 1 0 0 0 0 0 0 0 0 0 0 0 0 0 0 0 0 0 0 0 0 0 0 0 0 0 0 0 0 0 0 0 0
Wind_Speed
6 6 5 4 4 4 4 3 2 3 3 3 2 2 2 2 4 5 4 8 8 7 8 8 8 8 8 9 9 9 10 10 10 11 11 11 12 12 12 12 13 13 13
6 5 5 5 4 4 4 3 3 3 2 2 2 2 2 3 4 5 5 5 7 7 7 7 7 7 7 7 8 8 9 9 9 10 10 11 11 11 11 12 12 13 13
7 6 5 5 4 4 4 3 3 3 3 2 2 2 2 3 2 4 5 4 4 5 6 5 5 5 6 6 6 7 7 7 8 9 9 10 10 11 11 11 12 12 12
8 6 5 5 5 4 4 3 3 3 3 2 2 2 2 2 2 3 3 4 3 3 4 5 4 4 4 5 5 6 6 6 7 8 9 9 10 10 11 11 11 12 12
8 6 5 5 6 4 4 4 3 3 3 2 2 2 1 2 2 2 2 3 3 4 3 4 4 3 2 3 4 4 5 5 6 7 8 9 9 10 11 11 11 12 12
9 7 5 6 6 5 4 4 4 3 3 3 2 2 1 1 1 2 2 3 3 3 3 3 3 2 2 0 2 3 4 4 5 7 8 9 9 10 11 11 11 12 12
9 8 6 6 6 6 6 6 5 5 3 3 3 1 1 1 2 2 2 2 3 3 3 3 2 2 2 2 1 2 4 5 6 7 8 9 10 10 11 11 12 13 13
10 8 8 7 7 6 6 6 6 4 3 3 3 2 1 1 2 2 2 2 2 2 3 3 3 3 2 2 2 2 3 5 6 7 8 9 10 11 11 12 12 13 14
10 9 9 8 7 7 6 7 7 7 4 3 3 4 3 3 1 1 3 3 3 3 3 3 4 3 3 3 3 3 3 4 6 8 9 10 11 12 13 13 14 14 15
11 10 10 9 8 7 7 7 7 5 6 4 3 2 2 3 3 1 2 3 4 4 4 3 4 4 4 3 3 5 3 4 6 8 10 11 12 13 14 14 15 15 16
11 11 11 10 9 7 8 8 7 7 5 5 4 3 2 0 1 3 2 2 2 3 3 4 3 3 4 3 3 4 5 4 6 9 10 11 13 14 15 16 16 16 17
9 12 11 11 10 8 8 8 8 9 6 6 4 4 4 3 3 3 3 2 3 3 3 3 3 3 3 3 4 6 5 5 7 9 10 11 13 14 16 16 17 17 18
9 14 12 11 10 9 9 8 8 9 8 7 6 4 4 4 3 3 3 2 2 2 2 3 3 3 3 3 3 6 6 7 8 10 11 12 13 14 16 17 18 18 19
11 12 13 11 11 10 9 8 7 7 7 7 7 6 4 4 3 3 4 3 1 1 2 4 2 3 3 3 4 6 4 8 9 10 11 12 14 15 16 17 18 18 19
10 13 13 12 11 11 10 9 7 8 7 7 7 7 5 4 3 3 3 4 4 3 4 4 2 2 2 2 4 3 3 7 10 11 12 13 14 15 16 17 18 18 19
11 13 13 13 12 11 11 9 7 7 8 7 5 7 5 4 3 3 3 3 3 4 3 3 2 2 2 1 4 2 3 8 10 12 13 14 15 16 16 17 18 19 20
12 13 13 13 12 12 11 10 9 9 9 8 7 7 7 5 4 3 3 3 3 3 4 3 1 0 1 1 1 1 3 3 4 11 14 15 15 16 17 18 18 19 20
12 12 13 12 12 12 11 11 11 10 10 9 8 8 7 5 5 4 4 4 3 3 3 3 1 0 1 2 1 2 2 3 3 9 13 14 15 16 17 18 18 19 19
11 12 12 12 12 11 11 11 10 10 9 9 8 8 7 7 6 4 4 4 3 2 2 2 2 1 1 1 1 2 3 3 4 7 11 13 15 16 17 18 18 18 18
11 11 11 11 11 10 10 10 9 9 8 7 7 7 7 8 7 6 4 4 3 2 1 1 1 1 1 1 1 2 3 3 4 5 7 9 12 15 17 18 18 18 17
10 10 10 10 9 9 8 9 9 9 8 7 6 6 6 6 6 5 4 4 4 3 2 1 1 1 1 1 2 2 3 3 4 3 3 4 5 5 7 12 15 16 17
10 10 10 10 9 7 11 13 10 8 8 8 7 6 5 6 6 6 6 6 5 4 3 3 2 2 3 2 1 2 2 3 4 3 3 5 4 5 5 4 12 17 17
10 10 10 10 9 9 14 14 13 8 7 7 7 6 4 5 6 4 4 4 3 4 4 3 3 3 2 2 1 2 2 3 4 4 3 5 3 4 5 8 16 17 17
10 9 9 10 9 9 14 15 14 8 7 6 6 6 6 5 5 5 4 3 2 1 1 1 2 2 1 1 1 2 3 3 4 3 2 4 3 4 6 5 13 16 17
9 9 9 10 10 10 13 15 13 7 7 6 6 6 6 5 7 7 5 3 2 0 1 2 2 2 3 4 3 2 2 3 4 4 2 2 3 5 5 4 7 13 17
9 9 9 9 10 9 13 14 13 7 7 6 5 5 7 7 7 7 5 4 3 1 1 1 2 2 2 2 4 1 0 2 3 4 2 3 3 4 5 3 3 5 7
Wind_Direction
150 152 160 158 164 156 157 177 174 150 140 125 112 110 110 91 97 105 98 87 77 69 67 64 59 56 59 54 50 44 41 39 35 33 30 25 22 20 19 17 14 12 10
157 159 159 157 159 149 159 171 166 140 129 117 115 101 93 88 97 116 124 100 90 82 74 65 58 54 54 53 50 44 38 34 31 28 25 22 18 16 13 12 10 8 6
160 163 155 155 154 154 158 161 147 124 120 119 114 90 75 72 83 112 127 132 115 96 89 73 61 53 49 48 47 42 35 30 28 25 20 15 11 8 6 5 3 1 359
162 162 153 156 156 152 151 148 136 127 127 130 120 103 95 81 79 98 111 126 133 125 110 100 77 57 48 39 36 34 30 25 19 17 12 6 2 1 359 357 355 354 352
163 158 155 157 154 149 151 153 142 139 137 128 120 111 107 121 120 110 121 120 120 125 133 131 122 97 55 28 22 17 15 15 9 6 1 356 354 352 349 348 347 346 345
167 160 156 162 156 152 157 156 151 142 140 142 125 110 117 138 146 157 157 139 141 147 151 154 151 151 156 58 2 349 350 355 355 353 350 346 344 342 342 341 340 339 338
171 166 163 166 160 160 166 163 150 149 147 133 109 96 300 224 190 179 169 163 167 163 162 171 169 164 183 196 245 318 326 333 338 340 340 337 334 333 333 334 333 332 332
175 173 168 169 164 161 168 168 152 150 160 157 147 142 186 301 280 208 180 180 180 169 186 190 181 178 179 172 196 231 300 317 324 328 330 328 326 324 324 325 325 325 325
180 175 174 170 171 168 174 173 164 158 164 187 180 159 161 202 217 244 218 198 196 193 203 200 194 194 193 177 181 204 246 298 313 318 321 322 321 320 320 320 320 320 320
183 179 178 177 176 175 175 177 170 164 158 175 204 207 178 157 149 206 269 233 214 210 208 202 195 200 198 186 184 192 218 277 302 311 316 317 317 317 317 317 317 317 316
188 184 183 182 181 180 180 179 172 171 168 168 172 173 198 210 177 159 222 249 249 236 214 202 195 201 200 190 183 195 218 263 293 304 309 312 313 315 315 316 316 315 314
188 189 187 187 185 182 182 181 177 175 177 176 174 168 165 172 197 185 198 213 227 237 220 208 201 203 198 190 198 197 218 254 282 295 301 305 309 311 311 312 312 312 312
188 192 189 189 188 184 181 178 177 179 179 180 182 183 183 188 177 172 177 205 220 235 214 227 213 197 192 184 195 198 229 256 275 288 295 300 304 307 307 308 309 310 310
188 187 188 189 189 185 182 178 178 180 182 185 188 184 185 195 184 174 171 166 199 259 233 240 230 199 190 184 194 195 236 258 273 284 292 297 301 303 304 305 307 307 307
180 183 187 189 189 186 183 179 182 182 180 186 189 189 187 188 183 183 173 163 167 205 246 239 224 217 191 176 187 192 232 266 277 285 292 297 300 301 302 304 306 306 305
177 180 184 187 187 185 182 180 178 177 178 184 183 186 190 185 180 177 178 178 172 178 223 238 217 213 185 179 210 210 244 276 281 288 293 297 299 301 304 305 306 306 305
176 179 182 184 185 184 181 180 181 177 182 185 183 187 191 176 171 179 178 181 187 174 214 255 245 143 153 216 246 246 257 264 279 289 294 298 300 302 303 305 307 307 308
175 177 178 181 183 182 181 182 183 182 184 187 185 182 185 174 179 182 182 189 195 190 191 230 252 245 229 229 232 260 280 282 275 290 297 300 302 303 306 307 307 307 308
172 172 174 178 179 179 179 181 181 181 185 185 181 181 181 174 185 184 183 192 195 193 176 191 238 250 272 276 282 289 293 290 290 294 297 300 303 306 309 310 309 309 310
169 170 170 172 174 174 175 175 175 175 176 175 173 175 174 178 186 182 181 184 175 178 177 187 248 283 287 307 328 290 297 291 294 298 300 306 308 312 313 311 312 313 313
163 162 162 164 165 167 171 168 167 166 167 164 161 161 164 167 170 169 167 169 165 168 167 194 239 266 275 309 280 274 289 297 294 286 304 307 308 303 306 309 311 311 312
153 155 159 159 159 162 161 160 159 159 158 159 159 155 152 153 157 163 166 172 171 171 183 191 217 237 256 262 276 299 304 318 304 300 310 300 301 295 295 292 307 313 316
151 152 154 153 154 155 154 154 152 152 152 156 155 152 150 150 151 155 158 158 170 171 178 183 200 227 243 251 268 283 288 288 279 290 312 293 292 293 301 308 313 315 318
151 151 149 149 146 152 151 150 146 141 136 139 143 146 146 146 148 145 140 141 147 154 170 158 184 228 262 273 244 265 278 295 290 298 313 290 298 300 307 302 308 317 325
141 143 144 144 143 147 149 146 142 137 132 132 132 133 138 140 141 138 138 143 133 77 52 59 31 2 350 341 346 9 350 337 314 302 296 293 304 311 296 286 308 326 328
136 134 132 136 139 141 144 143 141 138 136 133 126 127 130 136 141 143 143 144 153 174 109 67 33 4 358 345 349 8 326 314 311 301 325 330 306 325 312 296 311 317 316